Location: Songkhla
(7.2000°N, 100.6000°E)
Time: 19:07:46
(UTC+07:00)

Envisat - Visible Passes

Search period start: 20 January 2022 00:00
Search period end: 30 January 2022 00:00
Orbit: 764 x 766 km, 98.2° (Epoch: 20 January)

Date Brightness Start Highest point End Pass type
(mag) Time Alt. Az. Time Alt. Az. Time Alt. Az.
20 Jan 3.1 05:13:52 10° N 05:18:44 48° WNW 05:23:36 10° SSW visible
21 Jan 3.5 04:36:59 10° NNE 04:41:58 59° ESE 04:46:57 10° S visible
22 Jan 5.3 04:01:26 10° NE 04:05:09 21° E 04:08:52 10° SSE visible
22 Jan 4.0 05:39:56 10° NNW 05:43:54 23° WNW 05:47:53 10° SW visible
23 Jan 2.8 05:02:09 10° N 05:07:11 67° WNW 05:12:13 10° SSW visible
24 Jan 4.1 04:25:37 10° NNE 04:30:24 42° ESE 04:35:10 10° S visible
24 Jan 4.7 06:07:38 10° WNW 06:09:02 11° WNW 06:10:26 10° W visible
25 Jan 5.7 03:50:46 10° ENE 03:53:35 15° E 03:56:23 10° SE visible
25 Jan 3.6 05:27:54 10° NNW 05:32:22 32° WNW 05:36:50 10° SW visible
26 Jan 2.9 04:50:33 10° NNE 04:55:37 88° ESE 05:00:42 10° SSW visible
27 Jan 4.7 04:14:23 10° NE 04:18:49 31° E 04:23:15 10° SSE visible
27 Jan 4.4 05:54:33 10° NW 05:57:31 16° WNW 06:00:29 10° WSW visible
28 Jan 6.1 03:41:12 10° E 03:42:00 10° E 03:42:48 10° ESE visible
28 Jan 3.2 05:16:02 10° N 05:20:49 44° WNW 05:25:37 10° SSW visible
29 Jan 3.3 04:39:02 10° NNE 04:44:03 64° ESE 04:49:04 10° S visible
